Theta_e
313 313 313 314 313 313 313 314 315 315 316 316 315 314 313 313 314 313 312 313 313 310 309 308 307 306 306 305 306 307 308 310 311 312 314 316 318 318 319 319 319 318 316 316
313 314 314 315 316 316 315 315 315 316 316 315 314 313 314 314 314 313 313 312 311 308 308 306 305 304 304 303 303 303 305 306 307 308 312 313 314 315 316 316 316 316 315 314
315 317 316 316 315 316 315 315 316 317 315 314 313 314 315 316 315 312 312 310 307 307 306 305 303 302 302 302 302 301 300 302 304 305 306 307 308 309 310 310 311 313 313 313
318 315 314 315 317 315 317 315 314 314 314 316 314 316 315 315 315 310 310 307 306 305 304 303 301 300 300 300 300 300 299 299 300 301 303 303 304 305 306 306 306 307 308 310
319 313 313 314 314 314 314 312 312 312 313 313 315 315 315 314 313 309 307 306 304 303 302 301 300 299 298 298 298 298 297 297 298 299 299 299 300 300 301 303 303 303 305 306
312 308 310 312 312 311 310 312 312 312 313 317 315 315 316 314 312 309 307 306 305 303 302 301 300 298 297 297 297 297 296 295 295 296 297 297 297 297 298 299 300 301 301 304
315 313 311 310 311 310 310 312 318 321 317 319 317 316 316 315 313 309 308 306 304 303 301 300 299 299 297 296 297 296 296 295 295 295 295 296 296 296 296 296 297 297 298 299
316 315 312 310 311 316 312 316 320 322 321 320 316 317 317 311 309 308 306 304 302 300 298 297 297 297 297 296 295 295 295 295 293 293 293 294 294 294 294 294 295 295 295 296
314 314 311 311 312 313 315 315 314 315 308 313 315 315 313 312 310 308 305 302 300 298 296 295 295 295 294 294 293 293 293 293 292 291 292 292 292 292 293 292 293 293 293 293
314 317 315 309 310 310 312 310 315 314 317 312 313 312 312 313 310 306 304 302 299 297 295 294 293 292 292 292 291 291 291 290 290 289 288 290 291 290 289 288 289 288 288 291
312 314 315 313 313 313 311 312 312 313 314 317 316 312 310 308 305 302 301 301 298 295 294 291 291 291 291 290 290 290 290 289 289 288 287 288 288 289 287 286 286 285 285 287
314 316 313 314 310 309 309 310 310 315 317 314 315 315 309 304 302 301 300 299 297 296 294 291 291 290 290 290 289 289 289 289 288 288 287 287 287 288 287 286 284 284 284 284
312 312 308 304 305 310 312 311 312 310 312 313 314 313 309 305 301 301 299 297 294 292 292 292 290 290 290 290 289 289 288 288 288 288 287 286 286 287 287 286 285 284 284 283
310 310 308 307 305 309 309 308 307 307 308 306 307 307 308 305 303 298 296 295 293 291 290 290 290 289 289 289 289 289 288 288 288 287 287 287 286 286 285 285 285 283 283 283
306 307 309 309 307 304 303 303 302 302 302 302 301 301 301 301 300 294 292 290 290 290 290 289 289 288 289 289 288 288 288 288 287 287 287 287 286 285 285 284 284 284 283 282
300 299 300 294 301 300 301 300 300 301 301 301 301 301 298 291 291 289 289 289 289 289 289 290 289 289 289 289 289 288 288 287 287 287 287 287 286 285 284 284 284 283 282 282
299 296 293 292 298 294 292 295 296 297 297 296 296 294 292 292 290 289 289 288 288 288 288 288 287 288 289 289 289 289 287 286 286 286 286 286 286 285 284 284 283 283 282 281
294 291 293 288 287 289 293 293 293 293 293 293 294 292 291 290 290 288 288 288 288 288 288 288 288 288 288 288 288 287 286 285 284 284 284 284 284 284 284 283 283 282 281 280
293 295 289 286 284 291 293 292 292 292 290 290 291 292 290 290 288 287 289 289 288 288 288 288 288 287 287 286 284 282 282 281 281 281 281 281 282 281 281 281 281 281 281 279
290 292 292 285 287 285 289 289 289 288 286 287 286 287 287 289 288 288 289 288 288 288 287 286 285 283 282 281 280 278 277 277 276 276 276 276 276 275 273 275 276 279 279 279
285 285 292 293 292 289 291 289 289 286 288 290 289 287 287 288 287 288 288 287 287 285 284 283 281 279 279 277 275 275 274 274 273 272 270 270 270 269 269 269 270 271 272 273
288 285 284 285 286 290 291 288 289 290 289 289 288 288 288 288 288 287 285 283 283 282 280 279 277 276 275 274 273 272 271 270 269 268 267 265 265 264 264 265 265 266 268 269
287 288 286 288 287 290 288 288 289 288 289 289 288 288 288 287 286 284 282 281 280 279 277 276 274 273 272 271 270 269 269 267 266 265 264 263 263 263 263 263 263 264 264 265
288 288 287 287 289 289 289 289 288 288 288 288 288 286 284 284 283 282 280 279 277 276 275 273 272 271 270 269 268 267 266 265 264 263 262 262 262 262 262 262 262 263 263 264
288 289 288 288 289 289 289 289 289 289 289 286 283 283 282 281 279 278 277 276 274 273 272 270 269 269 268 267 266 265 264 263 262 262 261 262 262 262 262 262 262 262 263 264
290 290 290 289 289 289 289 288 288 288 287 285 282 281 279 277 276 275 274 272 271 270 269 268 267 266 266 265 264 263 262 261 261 261 261 261 261 262 262 262 262 263 264 265
Wind_Speed
6 4 7 11 11 14 8 10 12 9 9 12 10 9 8 16 16 12 9 6 5 16 19 29 32 33 33 34 32 31 24 9 2 3 8 11 12 13 16 20 19 19 21 25
3 7 12 9 8 8 7 11 13 9 6 6 9 12 15 18 14 7 5 5 8 15 17 23 27 28 29 28 30 29 25 21 16 7 2 6 3 8 14 14 18 21 20 23
11 8 10 7 6 9 10 9 10 13 7 6 8 8 10 10 7 8 7 13 16 17 16 15 21 24 25 29 30 27 29 26 22 16 10 8 7 9 10 12 13 15 20 23
10 2 3 8 8 8 12 5 3 4 3 3 6 5 5 14 1 16 15 15 13 14 14 12 16 22 25 26 29 30 32 33 28 22 18 17 16 14 12 11 14 15 17 21
2 5 4 5 6 2 2 2 3 4 5 5 7 4 6 8 12 9 11 14 13 12 12 12 16 20 22 27 27 27 28 30 29 27 23 20 20 19 16 13 15 16 15 17
11 2 3 4 3 2 3 2 6 6 3 2 11 8 5 3 9 7 10 11 11 10 9 11 16 17 21 23 24 25 26 27 27 25 24 23 21 18 18 18 18 17 16 15
6 12 5 1 2 2 2 1 3 2 2 5 10 6 5 5 2 13 14 12 10 9 7 7 8 13 16 20 19 20 22 24 25 26 25 24 24 23 21 20 20 21 20 18
6 7 10 7 5 2 5 2 3 5 2 8 7 5 5 6 15 16 14 11 10 9 7 7 12 13 14 14 14 16 15 13 14 16 17 20 20 21 20 22 23 23 23 22
4 3 4 4 3 1 3 3 2 2 1 2 5 6 7 6 13 12 11 10 8 7 6 7 11 13 14 13 16 15 17 15 14 13 14 15 15 18 18 20 21 23 24 26
2 5 6 4 2 1 2 3 3 1 3 5 7 3 5 7 10 9 8 7 6 6 5 5 8 12 14 16 17 17 16 16 15 20 21 18 16 16 17 17 19 22 25 26
3 1 5 7 3 3 0 2 4 3 4 7 10 6 7 11 10 8 5 4 5 6 6 6 11 14 14 16 18 18 20 20 19 20 20 20 18 17 19 18 19 21 23 24
4 2 4 7 8 11 13 12 11 5 4 4 4 9 9 11 12 8 4 3 2 1 2 4 8 11 15 17 20 21 21 22 22 21 23 22 19 18 21 24 24 23 23 23
1 1 3 9 3 6 5 3 2 4 1 12 10 13 7 7 6 5 3 3 2 4 4 1 2 4 8 11 15 17 19 22 25 26 26 27 24 21 21 25 27 27 25 24
3 3 5 9 8 4 4 7 8 1 5 11 16 21 17 19 17 6 5 2 3 3 4 3 3 2 6 9 11 13 16 18 23 25 29 33 34 33 34 33 34 32 29 27
1 4 6 10 9 4 6 14 18 14 16 11 24 21 21 15 11 5 6 7 6 6 6 5 5 6 9 11 13 15 17 19 22 25 29 34 36 37 39 39 40 38 35 33
2 3 2 5 6 8 13 20 15 18 19 17 18 22 11 7 5 7 7 6 6 6 6 5 5 10 13 15 14 14 15 20 22 25 31 37 40 42 43 39 38 37 34 33
5 3 2 6 2 5 9 16 19 17 18 15 16 9 3 4 4 4 3 5 8 7 6 8 7 10 17 22 22 14 16 19 23 27 32 34 35 38 41 40 39 38 35 34
4 5 3 4 4 2 8 5 3 5 6 3 1 3 4 2 2 5 5 7 6 7 8 8 15 18 21 20 21 21 21 23 27 30 31 33 34 35 37 37 37 38 36 35
8 5 2 3 5 7 16 4 3 3 5 4 6 2 2 2 7 9 7 3 5 6 10 13 17 22 24 24 24 26 25 25 25 27 28 29 30 32 33 37 40 40 36 37
1 6 5 2 4 8 5 3 4 4 4 2 5 3 1 3 5 9 5 4 6 11 12 15 20 24 23 23 24 24 27 30 30 30 30 29 29 29 29 31 33 36 37 38
3 1 11 12 8 6 4 8 4 4 7 4 6 6 6 5 7 7 5 6 9 12 17 20 19 17 19 22 25 28 30 30 30 30 32 32 29 30 34 38 39 38 34 32
6 6 4 1 3 8 2 5 6 5 5 7 7 8 6 7 6 4 6 6 9 12 16 16 18 20 22 24 25 28 29 32 33 34 33 33 33 32 32 34 38 38 38 40
2 7 4 8 5 4 5 7 8 5 6 8 6 8 4 3 3 4 4 6 8 12 16 16 17 22 24 23 22 27 31 33 34 34 34 34 33 32 31 32 33 33 32 33
5 6 3 2 6 14 15 10 8 7 8 8 5 3 3 2 2 3 4 5 8 11 14 18 21 24 26 24 25 27 31 32 33 34 34 33 33 33 32 30 30 29 29 29
7 4 7 6 12 14 14 12 14 16 13 4 4 3 3 1 1 3 4 5 9 13 15 16 19 23 27 28 28 29 30 31 33 33 33 33 32 32 32 31 31 31 32 33
12 19 10 10 13 10 12 8 6 3 5 6 5 3 3 2 2 4 4 8 10 13 16 18 20 22 26 29 31 31 32 32 31 31 30 30 32 32 32 33 33 34 37 38
Wind_Direction
193 205 207 229 232 239 275 280 282 283 293 280 280 294 295 269 282 285 294 263 95 86 67 60 49 42 42 42 40 38 37 36 29 235 230 234 243 242 244 236 238 240 238 233
136 233 235 273 290 296 280 288 286 275 278 323 305 295 283 282 274 252 76 58 98 78 62 52 48 44 43 39 40 39 41 43 44 20 324 253 295 255 257 258 251 244 243 241
227 253 322 294 269 281 264 263 279 294 318 295 278 272 259 274 265 91 58 75 73 72 66 53 45 38 36 38 39 42 41 39 36 33 32 358 318 305 297 275 272 259 245 245
256 208 268 277 252 250 274 270 308 323 0 262 39 283 305 281 78 81 80 69 63 68 66 59 50 45 38 35 38 40 37 37 34 34 35 25 11 350 339 326 311 280 263 249
278 159 200 235 235 175 221 45 316 270 263 311 250 251 246 221 96 81 77 76 71 64 63 54 48 47 39 36 36 39 37 36 33 36 34 25 10 354 343 342 332 325 297 267
256 95 289 241 49 133 56 305 260 242 214 253 241 195 309 69 137 122 105 88 82 74 64 62 63 52 43 36 30 30 30 30 28 26 28 31 21 6 358 351 344 337 324 296
302 219 186 225 259 98 118 319 305 320 178 205 29 2 229 106 102 139 117 101 86 73 68 73 63 54 51 38 31 28 25 21 16 14 14 18 15 10 5 355 345 335 328 319
277 296 155 166 232 114 184 226 186 243 252 291 2 252 264 74 90 93 95 91 76 62 56 50 51 47 52 51 45 43 40 44 29 10 2 12 6 3 1 2 358 348 335 320
297 264 19 180 94 133 85 177 353 288 307 0 216 246 277 113 89 88 87 76 69 65 60 51 48 43 41 41 38 35 35 33 27 16 15 17 3 1 0 356 354 350 345 339
331 298 244 116 137 203 140 350 306 250 241 233 263 261 234 47 110 90 68 55 48 45 44 52 51 40 33 30 27 25 23 18 11 6 9 5 359 356 355 353 350 348 344 341
54 249 275 355 193 240 356 251 203 238 235 259 272 266 109 106 87 84 85 85 30 8 11 19 21 21 24 19 14 11 7 2 359 358 352 350 347 338 344 348 350 349 344 342
41 211 260 237 308 300 287 274 271 252 248 221 235 261 82 107 117 113 106 121 92 261 32 41 6 4 5 4 358 352 352 348 346 342 337 339 332 330 331 335 338 339 338 337
60 298 334 324 288 47 50 344 330 19 139 254 270 270 350 127 112 80 338 127 127 39 334 185 296 354 354 341 335 333 336 333 330 330 328 327 325 323 320 318 323 325 325 327
77 185 192 241 253 57 295 295 285 103 275 284 269 280 278 295 319 72 73 39 68 13 325 319 255 316 311 302 297 302 305 310 314 317 316 318 322 321 318 316 315 317 317 318
128 233 202 251 285 312 267 271 274 261 259 249 270 279 279 293 302 70 66 40 12 345 332 338 332 271 259 258 263 271 279 285 287 295 300 304 307 310 310 309 310 310 309 309
1 254 79 286 251 257 268 261 260 258 255 253 261 269 298 82 76 56 40 6 329 301 293 303 309 315 313 296 273 266 275 280 286 289 290 292 295 302 303 303 302 300 298 300
170 151 101 260 37 13 297 256 249 254 259 265 268 277 303 120 95 55 356 315 300 319 347 334 319 312 315 310 304 312 310 307 301 293 289 284 281 283 286 291 293 291 290 294
160 128 135 251 62 243 245 14 288 256 282 320 275 178 179 184 4 351 332 302 340 338 328 320 316 316 319 330 331 322 314 309 303 297 291 287 283 277 276 278 276 277 280 284
222 186 242 186 200 291 304 305 47 152 271 197 209 290 139 19 351 312 295 327 322 312 310 326 338 331 328 333 332 327 317 312 309 305 303 300 295 293 288 283 280 277 274 276
276 189 186 151 203 223 240 170 125 113 279 253 118 118 139 297 289 287 280 322 309 326 336 340 336 329 328 329 331 327 318 312 310 312 313 316 322 327 330 325 318 299 282 275
97 347 213 229 239 272 187 148 152 103 261 189 172 196 216 232 239 256 315 336 347 346 341 333 329 322 320 328 328 317 315 313 316 318 315 311 310 311 308 305 302 300 304 298
154 162 208 194 249 269 95 111 184 217 179 192 207 224 247 260 271 314 347 349 349 336 333 333 327 321 322 323 323 315 312 314 315 313 310 308 307 304 300 297 293 290 288 287
223 200 188 182 205 211 205 198 226 262 266 281 279 269 242 244 282 329 333 329 321 325 324 328 324 314 314 321 320 311 311 313 312 310 309 307 306 303 299 296 294 293 290 285
242 240 217 47 251 260 269 265 248 265 267 275 255 154 124 232 314 313 310 310 317 318 323 326 323 315 314 319 316 310 311 312 311 309 307 306 303 300 298 294 290 288 287 285
205 158 226 244 245 263 265 261 267 268 272 184 132 132 130 100 260 291 299 307 312 316 321 320 312 308 308 313 312 312 313 314 309 306 303 302 299 298 297 293 289 286 282 280
225 236 238 244 251 249 267 266 254 191 223 171 155 136 121 113 297 321 299 308 311 315 316 310 307 306 307 309 309 311 314 310 306 304 303 301 299 298 295 294 292 289 289 290